Regional Weather Roundup
Issued by NWS Cleveland, OH

Home | Current Version | Previous Version | Graphics & Text | Print | Product List | Glossary On
Versions: 1 2 3 4 5 6 7 8 9 10 11 12 13 14 15 16 17 18 19 20 21 22 23 24 25 26 27 28 29 30 31 32 33 34 35 36 37 38 39 40 41 42 43 44 45 46 47 48 49 50
000
ASUS41 KCLE 181312
RWRCLE
OHIO REGIONAL WEATHER ROUNDUP
NATIONAL WEATHER SERVICE WILMINGTON, OH
800 AM EST SAT NOV 18 2017

NOTE: "FAIR" INDICATES FEW OR NO CLOUDS BELOW 12,000 FEET WITH NO
SIGNIFICANT WEATHER AND/OR OBSTRUCTIONS TO VISIBILITY.

OHZ001>008-015>018-024>027-034-035-043-044-181400-
   NORTHWEST OHIO

CITY           SKY/WX    TMP DP  RH WIND       PRES   REMARKS
DEFIANCE       CLOUDY    46  44  93 E3        29.50F FOG
FINDLAY        RAIN      49  46  90 S7        29.53F FOG
TOLEDO EXPRESS LGT RAIN  46  46 100 SE3       29.51F FOG
TOLEDO EXEC    CLOUDY    46  44  93 S5        29.56F FOG
LIMA           LGT RAIN  48  48 100 S12       29.51F
$$

OHZ009>014-019>023-028>033-038-089-181400-
   NORTHEAST OHIO

CITY           SKY/WX    TMP DP  RH WIND       PRES   REMARKS
CLE-HOPKINS    CLOUDY    46  43  89 S12       29.61F
CLE-LAKEFRONT  CLOUDY    47  42  83 SW16      29.58F
CUY CO. ARPT   CLOUDY    48  45  87 S17G23    29.59F
LORAIN-ELYRIA  LGT RAIN  44  39  82 S8        29.59F
ASHTABULA      CLOUDY    41  40  96 S12       29.62F FOG
AKRON-CANTON   RAIN      44  40  85 S10       29.62F FOG
WOOSTER        HVY RAIN  42  41  96 S7        29.61F FOG
MANSFIELD      HVY RAIN  47  46  97 S13       29.59S FOG
YOUNGSTOWN     LGT RAIN  41  39  93 S7G17     29.64F
$$

OHZ042-051>053-060>062-070>072-077>081-181400-
  SOUTHWEST OHIO

CITY           SKY/WX    TMP DP  RH WIND       PRES   REMARKS
CINC-COVINGTON CLOUDY    59  50  72 S20G30    29.55F
CINC-LUNKEN    CLOUDY    60  50  69 S18G26    29.57F
HAMILTON       CLOUDY    60  49  66 SW9       29.57F
DAYTON         CLOUDY    56  48  74 S21G30    29.53F
WRIGHT-PAT AFB CLOUDY    56  46  70 S15       29.53F
DAYTON GENERAL CLOUDY    57  47  69 S16G22    29.54F
WILMINGTON     CLOUDY    56  47  71 S16       29.56F
$$

OHZ036-037-039>041-045>050-054>059-063>069-073>076-082>088-181400-
  CENTRAL AND SOUTHEAST OHIO

CITY           SKY/WX    TMP DP  RH WIND       PRES   REMARKS
COLUMBUS       CLOUDY    50  46  86 SE5       29.57F
OSU AIRPORT    CLOUDY    48  47  96 E7        29.56F
BOLTON FIELD   CLOUDY    52  46  82 S10       29.57F
RICKENBACK AFB CLOUDY    52  47  82 S14       29.57F
NEWARK         CLOUDY    49  43  80 CALM      29.59F
MARION         LGT RAIN  46  45  96 S10       29.58F FOG
LANCASTER      CLOUDY    51  45  79 S10       29.59F
ZANESVILLE     CLOUDY    49  41  74 S9        29.62F
NEW PHILLY     RAIN      45  41  86 SE5       29.65F FOG
$$



USA.gov is the U.S. government's official web portal to all federal, state and local government web resources and services.